This is the latest recevied weather packets stored in our database for station/object N4NVD-13. If no packets are shown the sender has not sent any weather packets the latest 10 day(s).
| Time | Temp. | Humidity | Pressure | Rain* | Wind** | Luminosity | Snow |
|---|---|---|---|---|---|---|---|
| 1777884309 | 14.44° C | 91% | 1014.9 hPa | 0 mm | - | 0 W/m² | - |
| 1777884004 | 15° C | 90% | 1014.8 hPa | 0 mm | - | 0 W/m² | - |
| 1777883703 | 15° C | 89% | 1015 hPa | 0 mm | - | 0 W/m² | - |
| 1777883398 | 15° C | 89% | 1014.9 hPa | 0 mm | - | 0 W/m² | - |
| 1777883094 | 15.56° C | 88% | 1015 hPa | 0 mm | - | 0 W/m² | - |
| 1777882791 | 15.56° C | 88% | 1015.2 hPa | 0 mm | - | 0 W/m² | - |
| 1777882489 | 15.56° C | 88% | 1015.3 hPa | 0 mm | - | 0 W/m² | - |
| 1777882184 | 15.56° C | 88% | 1015.1 hPa | 0 mm | - | 0 W/m² | - |
| 1777881881 | 15.56° C | 88% | 1015.1 hPa | 0 mm | - | 0 W/m² | - |
| 1777881577 | 15.56° C | 87% | 1015.1 hPa | 0 mm | - | 0 W/m² | - |
| 1777881274 | 15.56° C | 87% | 1015 hPa | 0 mm | - | 0 W/m² | - |
| 1777880972 | 16.11° C | 87% | 1015.1 hPa | 0 mm | - | 0 W/m² | - |
| 1777880670 | 15.56° C | 87% | 1015.3 hPa | 0 mm | - | 0 W/m² | - |
| 1777880367 | 16.11° C | 86% | 1015.4 hPa | 0 mm | - | 0 W/m² | - |
| 1777880066 | 16.11° C | 86% | 1015.4 hPa | 0 mm | - | 0 W/m² | - |
| 1777879764 | 16.11° C | 86% | 1015.3 hPa | 0 mm | - | 0 W/m² | - |
| 1777879461 | 16.11° C | 85% | 1015.6 hPa | 0 mm | - | 0 W/m² | - |
| 1777879158 | 16.67° C | 85% | 1015.4 hPa | 0 mm | - | 0 W/m² | - |
| 1777878855 | 16.67° C | 85% | 1015.6 hPa | 0 mm | - | 0 W/m² | - |
| 1777878552 | 16.67° C | 84% | 1016.1 hPa | 0 mm | - | 0 W/m² | - |
| 1777878249 | 16.67° C | 84% | 1016.2 hPa | 0 mm | - | 0 W/m² | - |
| 1777877944 | 17.22° C | 83% | 1016.3 hPa | 0 mm | - | 0 W/m² | - |
| 1777877641 | 17.22° C | 83% | 1016.3 hPa | 0 mm | - | 0 W/m² | - |
| 1777877338 | 17.22° C | 82% | 1016.3 hPa | 0 mm | - | 0 W/m² | - |
| 1777877036 | 17.22° C | 83% | 1016.2 hPa | 0 mm | - | 0 W/m² | - |
* Rain latest hour (hover to see other rain measurements)
** Current wind speed in m/s (hover to see current wind gust speed)